Location: �terpigny
(49.8910°N, 2.9249°E)
Time: 04:20:49
(UTC+00:00)

EO-88 - Pass Details

Date: 04 July 2022
Orbit: 454 x 462 km, 97.3° (Epoch: 07 August)

Event Time Altitude Azimuth Distance (km) Brightness Sun altitude
Exits shadow 21:52:56 - 205° (SSW) 1,755 ? -12.6°
Reaches altitude 10° 21:53:18 10° 208° (SSW) 1,623 ? -12.6°
Maximum altitude 21:56:14 25° 265° (W) 989 ? -12.8°
Drops below altitude 10° 21:59:10 10° 323° (NW) 1,632 ? -13.0°
Sets 22:01:29 0° 337° (NNW) 2,512 ? -13.2°
